Regional Weather Roundup
Issued by NWS

Home | Current Version | Previous Version | Text Only | Print | Product List | Glossary On
Versions: 1 2 3 4 5 6 7 8 9 10 11 12 13 14 15 16 17 18 19 20 21 22 23 24 25 26 27 28 29 30 31 32 33 34 35 36 37 38 39 40 41 42 43 44 45 46 47 48 49 50
821
ASUS43 KDTX 292101
RWRMI
MICHIGAN HOURLY REGIONAL WEATHER ROUNDUP
NATIONAL WEATHER SERVICE DETROIT/PONTIAC MI
500 PM EDT MON MAY 29 2017

NOTE: "FAIR" INDICATES FEW OR NO CLOUDS BELOW 12,000 FEET WITH NO
SIGNIFICANT WEATHER AND/OR OBSTRUCTION TO VISIBILITY.

MIZ047>049-052>055-059>063-066>070-074>076-081>083-292200-
SOUTHEAST LOWER MICHIGAN

CITY           SKY/WX    TMP DP  RH WIND       PRES   REMARKS
ADRIAN         CLOUDY    78  48  34 W15G22    29.83F
ALMA           MOSUNNY   74  42  31 W24       29.78S
ANN ARBOR      TSTM      73  54  51 W13G21    29.83R
BAD AXE        PTSUNNY   72  41  32 W20G30    29.75S
CARO           PTSUNNY   75  45  33 SW17G29   29.75S
DETROIT CITY   LGT RAIN  70  49  47 SW23G30   29.81R
DETROIT        TSTM      68  55  63 SW15      29.84R
FLINT          MOSUNNY   76  42  29 W23G30    29.78F
GROSSE ILE     CLOUDY    74  49  40 NW20G30   29.83R
HILLSDALE      MOSUNNY   73  46  38 SW10G18   29.83F
HOWELL         MOSUNNY   75  38  26 W18G26    29.80F

CITY           SKY/WX    TMP DP  RH WIND       PRES   REMARKS
JACKSON        SUNNY     77  46  33 SW17G25   29.81F
LAMBERTVILLE   MOSUNNY   75  50  40 SW12      29.83S
LANSING        MOSUNNY   75  41  29 W21G29    29.80F
LAPEER         FAIR      75  43  31 W16G25    29.79S
MASON          MOSUNNY   75  46  34 W15G26    29.81S
MONROE         CLOUDY    74  51  45 W10G26    29.83R
MT. CLEMENS    CLOUDY    78  45  31 W15G24    29.78S
PONTIAC        PTSUNNY   74  42  31 W20G33    29.80R
PORT HOPE        N/A     76  42  29 SW15G31   29.71S
PORT HURON     PTSUNNY   73  45  35 W12G18    29.79R
TRI CITIES     MOSUNNY   74  43  32 W28G35    29.75S
MIDLAND        FAIR      74  38  27 SW20G37   29.74S
TROY           CLOUDY    77  38  24 W18G24    29.83R
SAGINAW HB     MOSUNNY   77  34  20 W21G35    29.75F
$$
MIZ043>046-050>051-056>058-064>065-071>073-077>080-292200-
SOUTHWEST LOWER MICHIGAN

CITY           SKY/WX    TMP DP  RH WIND       PRES   REMARKS
BATTLE CREEK   MOSUNNY   77  45  32 W21G32    29.82S
BENTON HARBOR  SUNNY     71  45  39 W14G20    29.84R
BIG RAPIDS     PTSUNNY   68  40  36 W22G32    29.77S
COLDWATER      CLOUDY    77  42  28 SW18G29   29.82F
FREMONT        PTSUNNY   70  40  33 W13G24    29.79S
HOLLAND        SUNNY     71  47  42 W13       29.83S
GRAND RAPIDS   MOSUNNY   73  45  36 W18G25    29.80S
IONIA          FAIR      74  43  32 W24G36    29.79S
KALAMAZOO      MOSUNNY   76  42  29 W21G31    29.82S
LUDINGTON      CLOUDY    64  50  60 W13       29.78S
MARSHALL       PTSUNNY   73  45  37 W8        29.81S
MOUNT PLEASANT MOSUNNY   71  39  31 W20G30    29.76R
MUSKEGON       MOSUNNY   68  46  45 W10       29.81S
SOUTH HAVEN    SUNNY     71  47  42 NW7       29.84S
$$
MIZ016>042-292200-
NORTHERN LOWER MICHIGAN

CITY           SKY/WX    TMP DP  RH WIND       PRES   REMARKS
ALPENA         CLOUDY    67  50  54 NE6       29.67S
BEAVER ISLAND  CLOUDY    55  50  82 SW12G22   29.70S
BELLAIRE       PTSUNNY   67  47  49 SW16G22   29.72S
CADILLAC       PTSUNNY   66  45  46 SW17G28   29.76R
CHARLEVOIX     MOSUNNY   65  48  54 SW16G28   29.74R
FRANKFORT      MOSUNNY   60  47  61 SW10G17   29.75S
GAYLORD        PTSUNNY   65  45  48 W16G25    29.73R
GRAYLING       CLOUDY    61  47  59 W17G26    29.76R
HARBOR SPRINGS SUNNY     65  49  55 W13G22    29.70S
HOUGHTON LAKE  MOSUNNY   68  44  42 W18G28    29.74R
MANISTEE       MOSUNNY   66  50  56 W17G24    29.76S
OSCODA         MOSUNNY   78  34  20 SW24G37   29.67S
PELLSTON       SUNNY     67  46  47 W22G33    29.70R
ROGERS CITY    LGT RAIN  61  55  80 E7        29.69R
TRAVERSE CITY  PTSUNNY   66  49  54 SW8G20    29.72R
$$
MIZ007>008-015-292200-
EASTERN UPPER MICHIGAN

CITY           SKY/WX    TMP DP  RH WIND       PRES   REMARKS
KINROSS        MOSUNNY   64  47  53 SW13G20   29.68R
MACKINAC ISLAN SUNNY     60  50  69 SW13G25   29.69R
NEWBERRY       RAIN      53  53  97 SW10      29.68R
S. S. MARIE    CLOUDY    63  47  55 SW10G17   29.66R
MUNISING         N/A     51  50  96 NE3       29.66R
$$
MIZ004>006-011>014-085-292200-
CENTRAL UPPER MICHIGAN

CITY           SKY/WX    TMP DP  RH WIND       PRES   REMARKS
MANISTIQUE     PTSUNNY   52  49  90 S7        29.67R
ESCANABA       HVY RAIN  59  52  77 W14       29.68R
SAWYER-GWINN   CLOUDY    59  48  67 W16G28    29.65R
$$
MIZ001>003-009>011-084-292200-
WESTERN UPPER MICHIGAN

CITY           SKY/WX    TMP DP  RH WIND       PRES   REMARKS
IRON MOUNTAIN  LGT RAIN  60  50  69 W8        29.66R
HOUGHTON       CLOUDY    54  49  83 W17G28    29.62S
COPPER HARBOR    N/A     55  50  83 NW8G18    29.60S
IRONWOOD       CLOUDY    57  49  74 W16       29.69R
$$

ABBREVIATIONS USED IN REMARKS
   TC - TEMPERATURE IN CELSIUS
  WCI - WIND CHILL INDEX
   HX - HEAT INDEX
  VSB - VISIBILITY





USA.gov is the U.S. government's official web portal to all federal, state and local government web resources and services.